FW2931 Weather Reports


Display with metric or nautical units.
time (UTC)temp
F
wind
direction
speed
MPH
gust
MPH
rain 1hr
in
rain 24hr
in
rain mn
in
humidity
%
barometer
mb
20260509042827 55 203 3.0 11.0 0.00 0.00 0.00 54 1020.0
20260509042316 55 180 4.0 9.0 0.00 0.00 0.00 54 1019.9
20260509041810 55 225 5.0 8.0 0.00 0.00 0.00 55 1019.8
20260509040747 56 225 6.0 9.0 0.00 0.00 0.00 54 1019.6
20260509040236 58 203 4.0 7.0 0.00 0.00 0.00 50 1019.2
20260509035725 58 203 2.0 4.0 0.00 0.00 0.00 53 1019.2
20260509035218 58 225 2.0 4.0 0.00 0.00 0.00 55 1019.0
20260509034706 58 225 1.0 4.0 0.00 0.00 0.00 54 1018.9
20260509034156 58 270 1.0 4.0 0.00 0.00 0.00 55 1018.6
20260509033645 59 248 1.0 4.0 0.00 0.00 0.00 56 1018.5
20260509033135 60 293 1.0 6.0 0.00 0.00 0.00 51 1018.4
20260509032628 59 270 2.0 6.0 0.00 0.00 0.00 56 1018.3
20260509032114 58 248 2.0 4.0 0.00 0.00 0.00 58 1018.1
20260509031605 59 270 2.0 6.0 0.00 0.00 0.00 57 1018.1
20260509031055 59 23 2.0 6.0 0.00 0.00 0.00 56 1017.9
20260509030544 59 338 2.0 4.0 0.00 0.00 0.00 56 1017.7
20260509030037 58 315 2.0 4.0 0.00 0.00 0.00 56 1017.7
20260509025523 58 293 2.0 4.0 0.00 0.00 0.00 56 1017.5
20260509025014 58 293 2.0 4.0 0.00 0.00 0.00 57 1017.3
20260509024504 58 293 2.0 4.0 0.00 0.00 0.00 56 1017.3
20260509023954 58 315 2.0 4.0 0.00 0.00 0.00 56 1016.8
20260509023447 58 293 2.0 4.0 0.00 0.00 0.00 55 1016.7
20260509022934 68 315 1.0 4.0 0.00 0.00 0.00 73 1016.4
20260509022424 57 315 1.0 4.0 0.00 0.00 0.00 57 1016.1
20260509021913 57 315 2.0 2.0 0.00 0.00 0.00 56 1015.9
20260509021402 57 315 0.0 2.0 0.00 0.00 0.00 57 1015.9
20260509020856 58 315 2.0 2.0 0.00 0.00 0.00 55 1015.9
20260509020343 58 315 1.0 2.0 0.00 0.00 0.00 55 1015.7
20260509015832 58 315 2.0 2.0 0.00 0.00 0.00 54 1015.4
20260509015322 58 338 2.0 2.0 0.00 0.00 0.00 54 1015.3
20260509014813 58 315 2.0 4.0 0.00 0.00 0.00 54 1015.3
20260509014305 58 338 1.0 4.0 0.00 0.00 0.00 54 1015.0
20260509013752 58 338 1.0 4.0 0.00 0.00 0.00 53 1014.8
20260509012731 57 0 2.0 4.0 0.00 0.00 0.00 53 1014.5
20260509012221 57 338 2.0 4.0 0.00 0.00 0.00 54 1014.4
20260509011206 57 0 0.0 2.0 0.00 0.00 0.00 55 1014.3
20260509010651 57 23 2.0 2.0 0.00 0.00 0.00 54 1013.8
20260509005630 56 338 2.0 4.0 0.00 0.00 0.00 55 1013.7
20260509005124 56 0 2.0 4.0 0.00 0.00 0.00 55 1013.6
20260509004610 56 0 2.0 4.0 0.00 0.00 0.00 55 1013.5
20260509004100 56 23 2.0 4.0 0.00 0.00 0.00 55 1013.2
20260509003551 56 23 2.0 4.0 0.00 0.00 0.00 55 1013.1
20260509003040 56 23 2.0 4.0 0.00 0.00 0.00 55 1013.1
20260509002533 56 0 2.0 4.0 0.00 0.00 0.00 55 1013.0
20260509002020 56 0 2.0 4.0 0.00 0.00 0.00 55 1013.1
20260508235942 56 0 2.0 6.0 0.00 0.00 0.00 54 1013.0
20260508234919 56 0 2.0 7.0 0.00 0.00 0.00 54 1012.7
20260508234409 56 23 2.0 7.0 0.00 0.00 0.00 53 1012.8
20260508233859 56 23 3.0 7.0 0.00 0.00 0.00 53 1012.6
20260508233352 57 0 2.0 6.0 0.00 0.00 0.00 53 1012.7
20260508232838 57 45 2.0 6.0 0.00 0.00 0.00 52 1012.6
20260508232340 57 45 3.0 6.0 0.00 0.00 0.00 52 1012.7
20260508231819 57 45 3.0 6.0 0.00 0.00 0.00 52 1012.2
20260508231308 57 45 3.0 8.0 0.00 0.00 0.00 51 1012.5
20260508230247 58 45 3.0 8.0 0.00 0.00 0.00 50 1012.1
20260508225737 58 45 4.0 11.0 0.00 0.00 0.00 50 1012.3
20260508224717 58 0 4.0 8.0 0.00 0.00 0.00 49 1012.2
20260508224209 58 90 4.0 11.0 0.00 0.00 0.00 49 1011.9
20260508223656 58 45 5.0 11.0 0.00 0.00 0.00 49 1011.7
20260508223147 58 45 4.0 9.0 0.00 0.00 0.00 49 1012.0
20260508222637 58 45 3.0 9.0 0.00 0.00 0.00 48 1011.9
20260508222126 59 90 4.0 9.0 0.00 0.00 0.00 48 1012.1
20260508221619 59 0 4.0 11.0 0.00 0.00 0.00 48 1012.0
20260508221106 59 23 4.0 11.0 0.00 0.00 0.00 47 1011.8
20260508220555 59 68 3.0 11.0 0.00 0.00 0.00 47 1011.3
20260508220059 59 45 3.0 11.0 0.00 0.00 0.00 46 1011.5
20260508215535 59 338 7.0 11.0 0.00 0.00 0.00 46 1011.1
20260508215028 60 0 2.0 11.0 0.00 0.00 0.00 46 1010.9
20260508214515 60 23 4.0 11.0 0.00 0.00 0.00 45 1011.1
20260508214004 60 23 4.0 13.0 0.00 0.00 0.00 45 1011.0
20260508213455 60 68 6.0 13.0 0.00 0.00 0.00 44 1010.8
20260508212950 60 45 4.0 14.0 0.00 0.00 0.00 43 1010.8
20260508212437 61 90 7.0 14.0 0.00 0.00 0.00 43 1010.7
20260508211930 61 338 4.0 15.0 0.00 0.00 0.00 43 1010.9
20260508211415 61 68 8.0 15.0 0.00 0.00 0.00 42 1010.4
20260508210904 62 23 2.0 15.0 0.00 0.00 0.00 42 1010.6
20260508210354 62 45 3.0 16.0 0.00 0.00 0.00 41 1010.4
20260508205847 62 90 4.0 16.0 0.00 0.00 0.00 40 1010.4
20260508205334 62 45 7.0 16.0 0.00 0.00 0.00 40 1010.5
20260508204823 63 68 4.0 16.0 0.00 0.00 0.00 40 1010.3
20260508204313 63 45 8.0 15.0 0.00 0.00 0.00 39 1010.5
20260508203256 64 68 8.0 17.0 0.00 0.00 0.00 38 1010.5
20260508202743 64 23 5.0 15.0 0.00 0.00 0.00 38 1010.7
20260508202232 64 68 4.0 15.0 0.00 0.00 0.00 38 1010.2
20260508201723 64 45 7.0 16.0 0.00 0.00 0.00 38 1010.4
20260508201213 64 68 5.0 16.0 0.00 0.00 0.00 38 1010.4
20260508200704 64 68 6.0 17.0 0.00 0.00 0.00 38 1010.2
20260508200152 65 45 7.0 17.0 0.00 0.00 0.00 37 1010.4
20260508195642 65 68 5.0 18.0 0.00 0.00 0.00 37 1010.4
20260508195131 64 45 8.0 18.0 0.00 0.00 0.00 38 1010.2
20260508194621 65 45 8.0 15.0 0.00 0.00 0.00 36 1010.6
20260508194115 65 68 6.0 14.0 0.00 0.00 0.00 36 1010.4
20260508193051 65 68 8.0 15.0 0.00 0.00 0.00 36 1010.6
20260508192540 65 90 8.0 17.0 0.00 0.00 0.00 36 1010.5
20260508191523 65 113 8.0 14.0 0.00 0.00 0.00 36 1010.8
20260508191011 66 45 7.0 11.0 0.00 0.00 0.00 35 1011.1
20260508190500 65 45 5.0 11.0 0.00 0.00 0.00 35 1011.0
20260508185951 66 0 5.0 11.0 0.00 0.00 0.00 35 1011.2
20260508185440 65 45 6.0 11.0 0.00 0.00 0.00 35 1011.5
20260508184420 65 23 3.0 15.0 0.00 0.00 0.00 35 1012.0
20260508183909 65 90 4.0 14.0 0.00 0.00 0.00 35 1011.9
20260508183400 65 68 4.0 14.0 0.00 0.00 0.00 35 1012.0
20260508182850 65 68 6.0 11.0 0.00 0.00 0.00 34 1011.9
20260508182342 65 68 6.0 11.0 0.00 0.00 0.00 35 1012.0
20260508181319 65 90 5.0 13.0 0.00 0.00 0.00 35 1012.3
20260508180808 66 68 5.0 11.0 0.00 0.00 0.00 34 1012.7
20260508180258 66 45 3.0 9.0 0.00 0.00 0.00 35 1012.9
20260508175751 66 90 3.0 9.0 0.00 0.00 0.00 36 1013.2
20260508175238 65 68 5.0 8.0 0.00 0.00 0.00 36 1012.9
20260508174745 64 68 2.0 9.0 0.00 0.00 0.00 36 1013.5
20260508174219 65 113 2.0 9.0 0.00 0.00 0.00 38 1013.8
20260508173713 64 113 4.0 7.0 0.00 0.00 0.00 37 1013.6
20260508173201 63 113 2.0 7.0 0.00 0.00 0.00 37 1013.9
20260508172648 64 68 2.0 6.0 0.00 0.00 0.00 35 1014.3
20260508172137 62 90 2.0 4.0 0.00 0.00 0.00 37 1014.3
20260508171628 62 135 3.0 7.0 0.00 0.00 0.00 36 1014.4
20260508171117 63 0 1.0 7.0 0.00 0.00 0.00 36 1014.5
20260508170610 63 68 2.0 7.0 0.00 0.00 0.00 37 1014.7
20260508165547 62 45 2.0 7.0 0.00 0.00 0.00 38 1015.5
20260508165036 60 315 4.0 7.0 0.00 0.00 0.00 36 1015.4
20260508164527 61 315 2.0 4.0 0.00 0.00 0.00 36 1015.7
20260508164019 60 113 2.0 6.0 0.00 0.00 0.00 36 1016.0
20260508163506 60 113 2.0 6.0 0.00 0.00 0.00 37 1016.1
20260508162957 59 135 2.0 4.0 0.00 0.00 0.00 39 1016.4
20260508162447 60 23 1.0 4.0 0.00 0.00 0.00 37 1016.6
20260508161936 59 0 2.0 6.0 0.00 0.00 0.00 37 1017.0
20260508161429 59 68 4.0 8.0 0.00 0.00 0.00 38 1017.0
20260508160915 58 68 2.0 8.0 0.00 0.00 0.00 39 1017.0
20260508160419 58 113 5.0 8.0 0.00 0.00 0.00 39 1017.3
20260508155856 57 90 2.0 11.0 0.00 0.00 0.00 39 1017.5
20260508155345 58 0 2.0 11.0 0.00 0.00 0.00 38 1017.9
20260508154838 58 68 3.0 8.0 0.00 0.00 0.00 41 1017.6
20260508154326 58 68 2.0 7.0 0.00 0.00 0.00 40 1018.0
20260508153814 57 23 2.0 7.0 0.00 0.00 0.00 42 1018.2
20260508152247 55 68 4.0 7.0 0.00 0.00 0.00 41 1018.4
20260508151734 55 45 2.0 7.0 0.00 0.00 0.00 43 1018.4
20260508151224 56 90 3.0 6.0 0.00 0.00 0.00 43 1018.6
20260508150726 54 338 3.0 6.0 0.00 0.00 0.00 43 1019.1
20260508145656 56 68 2.0 4.0 0.00 0.00 0.00 42 1019.5
20260508144633 55 45 4.0 4.0 0.00 0.00 0.00 45 1020.0
20260508144124 55 45 1.0 6.0 0.00 0.00 0.00 45 1019.8
20260508143613 54 90 2.0 6.0 0.00 0.00 0.00 47 1020.1
20260508143106 54 113 3.0 6.0 0.00 0.00 0.00 46 1020.2
20260508142606 54 135 1.0 6.0 0.00 0.00 0.00 45 1020.3
20260508142043 53 135 2.0 6.0 0.00 0.00 0.00 47 1020.5
20260508141023 53 158 2.0 4.0 0.00 0.00 0.00 44 1020.3
20260508140528 53 113 2.0 4.0 0.00 0.00 0.00 46 1020.4
20260508140002 52 113 2.0 4.0 0.00 0.00 0.00 47 1020.5
20260508135502 52 203 2.0 6.0 0.00 0.00 0.00 49 1020.5
20260508134942 50 225 3.0 6.0 0.00 0.00 0.00 49 1020.8
20260508133925 50 158 2.0 6.0 0.00 0.00 0.00 50 1020.9
20260508133412 50 203 3.0 6.0 0.00 0.00 0.00 49 1020.7
20260508132902 51 203 4.0 6.0 0.00 0.00 0.00 49 1020.8
20260508131853 50 225 3.0 7.0 0.00 0.00 0.00 50 1020.7
20260508131334 49 203 2.0 7.0 0.00 0.00 0.00 51 1020.5
20260508130310 47 248 3.0 7.0 0.00 0.00 0.00 53 1020.3
20260508125800 47 248 2.0 6.0 0.00 0.00 0.00 53 1020.2
20260508124743 47 203 2.0 7.0 0.00 0.00 0.00 55 1020.2
20260508124230 47 203 4.0 7.0 0.00 0.00 0.00 56 1020.0
20260508123719 47 203 2.0 7.0 0.00 0.00 0.00 59 1020.1
20260508123209 47 158 4.0 7.0 0.00 0.00 0.00 59 1019.7
20260508122700 48 158 2.0 7.0 0.00 0.00 0.00 60 1019.5
20260508122152 49 203 3.0 7.0 0.00 0.00 0.00 57 1019.2
20260508121639 49 135 4.0 8.0 0.00 0.00 0.00 54 1019.3
20260508121129 51 180 2.0 8.0 0.00 0.00 0.00 52 1018.6
20260508120619 52 158 4.0 8.0 0.00 0.00 0.00 44 1018.4
20260508120113 53 225 2.0 4.0 0.00 0.00 0.00 43 1018.3
20260508115601 53 225 2.0 4.0 0.00 0.00 0.00 45 1018.2
20260508115048 53 248 2.0 4.0 0.00 0.00 0.00 46 1018.0
20260508114028 52 248 1.0 6.0 0.00 0.00 0.00 48 1017.9
20260508113518 51 248 2.0 6.0 0.00 0.00 0.00 50 1017.6
20260508113011 51 293 2.0 8.0 0.00 0.00 0.00 50 1017.5
20260508111948 51 248 1.0 13.0 0.00 0.00 0.00 51 1017.5
20260508111438 51 270 4.0 14.0 0.00 0.00 0.00 50 1017.3
20260508105907 54 248 4.0 4.0 0.00 0.00 0.00 51 1017.0
20260508105358 53 225 2.0 2.0 0.00 0.00 0.00 55 1016.6
20260508104846 52 248 1.0 2.0 0.00 0.00 0.00 57 1016.3
20260508103829 51 270 0.0 4.0 0.00 0.00 0.00 66 1016.0
20260508103317 50 270 1.0 6.0 0.00 0.00 0.00 71 1016.0
20260508102805 50 225 2.0 7.0 0.00 0.00 0.00 73 1016.2
20260508102255 50 203 4.0 7.0 0.00 0.00 0.00 76 1015.9
20260508101747 51 225 3.0 7.0 0.00 0.00 0.00 68 1015.8
20260508101248 52 0 0.0 2.0 0.00 0.00 0.00 63 1015.3
20260508100221 52 338 2.0 2.0 0.00 0.00 0.00 66 1015.2
20260508095705 51 338 1.0 2.0 0.00 0.00 0.00 70 1014.8
20260508095155 51 338 1.0 2.0 0.00 0.00 0.00 71 1014.7
20260508094647 51 338 0.0 2.0 0.00 0.00 0.00 70 1014.7
20260508094134 51 338 2.0 2.0 0.00 0.00 0.00 71 1014.7
20260508092604 53 248 0.0 4.0 0.00 0.00 0.00 63 1014.6
20260508091544 53 293 2.0 4.0 0.00 0.00 0.00 60 1014.2
20260508091033 51 293 0.0 2.0 0.00 0.00 0.00 66 1014.2
20260508090523 50 293 0.0 2.0 0.00 0.00 0.00 69 1014.1
20260508090014 50 293 0.0 2.0 0.00 0.00 0.00 71 1014.2
20260508085507 49 293 0.0 2.0 0.00 0.00 0.00 72 1014.1
20260508084954 49 293 0.0 2.0 0.00 0.00 0.00 74 1013.9
20260508084443 49 293 0.0 2.0 0.00 0.00 0.00 74 1013.7
20260508083933 50 293 1.0 2.0 0.00 0.00 0.00 72 1013.9
20260508083422 50 293 2.0 2.0 0.00 0.00 0.00 72 1014.0
20260508082915 50 338 0.0 2.0 0.00 0.00 0.00 73 1013.8
20260508082402 50 338 0.0 2.0 0.00 0.00 0.00 73 1013.6
20260508081852 50 338 0.0 2.0 0.00 0.00 0.00 71 1013.7
20260508081342 51 338 1.0 2.0 0.00 0.00 0.00 68 1013.7
20260508080832 51 338 0.0 2.0 0.00 0.00 0.00 67 1013.6
20260508080328 51 338 1.0 2.0 0.00 0.00 0.00 64 1013.5
20260508075811 51 338 1.0 2.0 0.00 0.00 0.00 62 1013.6
20260508075301 51 338 1.0 2.0 0.00 0.00 0.00 62 1013.5
20260508074751 51 338 0.0 2.0 0.00 0.00 0.00 66 1013.7
20260508074241 51 338 0.0 2.0 0.00 0.00 0.00 68 1013.5
20260508073734 51 338 0.0 2.0 0.00 0.00 0.00 67 1013.5
20260508072710 52 338 1.0 2.0 0.00 0.00 0.00 65 1013.6
20260508072201 53 315 0.0 2.0 0.00 0.00 0.00 58 1013.7
20260508071650 53 315 0.0 2.0 0.00 0.00 0.00 53 1013.8
20260508071143 53 315 2.0 2.0 0.00 0.00 0.00 56 1013.7
20260508070630 52 315 2.0 2.0 0.00 0.00 0.00 59 1013.9
20260508070120 51 315 2.0 2.0 0.00 0.00 0.00 62 1014.0
20260508065610 52 315 1.0 2.0 0.00 0.00 0.00 64 1013.9
20260508065059 51 315 2.0 2.0 0.00 0.00 0.00 67 1014.0
20260508064553 51 315 0.0 2.0 0.00 0.00 0.00 67 1014.1
20260508064039 51 315 1.0 2.0 0.00 0.00 0.00 67 1014.1
20260508063529 52 315 1.0 2.0 0.00 0.00 0.00 63 1014.2
20260508063028 51 315 0.0 0.0 0.00 0.00 0.00 65 1013.9
20260508062509 51 315 0.0 0.0 0.00 0.00 0.00 66 1014.0
20260508062002 51 315 0.0 0.0 0.00 0.00 0.00 64 1014.2
20260508061725 52 315 0.0 0.0 0.00 0.00 0.00 65 1014.3
20260508061144 51 315 0.0 2.0 0.00 0.17 0.00 65 1014.2
20260508060634 52 315 2.0 2.0 0.00 0.17 0.00 61 1014.1
20260508060127 51 315 0.0 2.0 0.00 0.17 0.00 62 1014.4
20260508055613 51 315 0.0 2.0 0.00 0.17 0.00 65 1014.2
20260508055103 51 315 0.0 2.0 0.00 0.17 0.00 67 1014.3
20260508054043 51 315 0.0 2.0 0.00 0.17 0.00 66 1014.1
20260508053535 52 315 0.0 2.0 0.00 0.17 0.00 63 1014.2
20260508053023 51 315 0.0 2.0 0.00 0.17 0.00 65 1014.3
20260508052526 51 315 0.0 2.0 0.00 0.17 0.00 64 1014.3
20260508052003 52 315 2.0 2.0 0.00 0.17 0.00 60 1014.2
20260508051453 52 0 2.0 2.0 0.00 0.17 0.00 66 1014.3
20260508050946 51 0 2.0 2.0 0.00 0.17 0.00 68 1014.5
20260508050432 51 0 0.0 2.0 0.00 0.17 0.00 71 1014.4
20260508045922 51 0 0.0 2.0 0.00 0.17 0.00 73 1014.5
20260508044901 51 0 1.0 2.0 0.00 0.17 0.00 72 1014.6
20260508044406 51 0 1.0 2.0 0.00 0.17 0.00 72 1014.6
20260508043841 50 0 0.0 2.0 0.00 0.17 0.00 72 1014.6